Location: Unspecified
(0.0000°N, 0.0000°E)
Time: 22:50:37
(UTC+00:00)

Envisat - Visible Passes

Search period start: 27 May 2022 00:00
Search period end: 06 June 2022 00:00
Orbit: 764 x 765 km, 98.2° (Epoch: 27 May)

Date Brightness Start Highest point End Pass type
(mag) Time Alt. Az. Time Alt. Az. Time Alt. Az.
27 May 2.9 04:24:56 10° N 04:29:55 65° WNW 04:32:16 31° SSW visible
28 May 4.0 03:48:19 10° NNE 03:53:06 43° ESE 03:54:53 31° SSE visible
28 May 4.9 05:31:04 10° WNW 05:31:49 10° WNW 05:32:35 10° W visible
29 May 5.5 03:13:26 10° ENE 03:16:18 15° ESE 03:17:30 14° ESE visible
29 May 3.8 04:50:37 10° NNW 04:55:01 31° WNW 04:57:41 19° SW visible
30 May 2.9 04:13:08 10° NNE 04:18:12 89° WNW 04:20:17 37° SSW visible
31 May 4.5 03:36:56 10° NE 03:41:23 31° ESE 03:42:54 26° SE visible
31 May 4.7 05:17:18 10° NW 05:20:07 15° WNW 05:22:55 10° WSW visible
01 Jun 5.8 03:03:34 10° E 03:04:36 11° ESE 03:05:30 10° ESE visible
01 Jun 3.4 04:38:32 10° N 04:43:18 42° WNW 04:45:41 26° SW visible
02 Jun 3.2 04:01:27 10° NNE 04:06:28 66° ESE 04:08:18 39° S visible
03 Jun 5.0 03:25:44 10° NE 03:29:40 23° ESE 03:30:54 21° ESE visible
03 Jun 4.3 05:04:40 10° NNW 05:08:23 21° WNW 05:11:05 14° WSW visible
04 Jun 3.0 04:26:35 10° N 04:31:34 60° WNW 04:33:42 33° SW visible
05 Jun 3.8 03:49:54 10° NNE 03:54:44 47° ESE 03:56:18 35° SSE visible
